Location: Fours
(44.3167°N, 6.7000°E)
Time: 01:49:03
(UTC+00:00)

Cosmos 2123 Rocket - Pass Details

Date: 16 October 2021
Orbit: 961 x 992 km, 82.9° (Epoch: 02 December)

Event Time Altitude Azimuth Distance (km) Brightness Sun altitude
Rises 17:58:39 0° 356° (N) 3,719 7.1 -13.5°
Reaches altitude 10° 18:01:17 10° 2° (N) 2,766 6.4 -14.0°
Maximum altitude 18:07:26 50° 77° (ENE) 1,252 4.2 -15.1°
Drops below altitude 10° 18:13:30 10° 151° (SSE) 2,739 6.0 -16.2°
Sets 18:16:06 0° 157° (SSE) 3,679 6.8 -16.6°
